This is the latest recevied weather packets stored in our database for station/object G1OCN-WX. If no packets are shown the sender has not sent any weather packets the latest 1 day(s).
| Time | Temp. | Humidity | Pressure | Rain* | Wind** | Luminosity | Snow |
|---|---|---|---|---|---|---|---|
| 1777987535 | 15.56° C | 59% | 1012.7 hPa | 0 mm | 6.26 m/s, 15° | - | - |
| 1777987475 | 15.56° C | 60% | 1012.7 hPa | 0 mm | 4.47 m/s, 31° | - | - |
| 1777987415 | 15.56° C | 59% | 1012.7 hPa | 0 mm | 4.02 m/s, 25° | - | - |
| 1777987355 | 15.56° C | 59% | 1012.8 hPa | 0 mm | 4.02 m/s, 14° | - | - |
| 1777987294 | 15.56° C | 59% | 1012.7 hPa | 0 mm | 5.36 m/s, 36° | - | - |
| 1777987204 | 15.56° C | 59% | 1012.8 hPa | 0 mm | 4.47 m/s, 16° | - | - |
| 1777987114 | 15.56° C | 61% | 1012.8 hPa | 0 mm | 4.02 m/s, 32° | - | - |
| 1777987024 | 15.56° C | 60% | 1012.8 hPa | 0 mm | 4.02 m/s, 45° | - | - |
| 1777986964 | 15.56° C | 61% | 1012.8 hPa | 0 mm | 3.58 m/s, 12° | - | - |
| 1777986904 | 15.56° C | 59% | 1012.8 hPa | 0 mm | 4.47 m/s, 1° | - | - |
| 1777986844 | 15.56° C | 59% | 1012.8 hPa | 0 mm | 6.26 m/s, 31° | - | - |
| 1777986754 | 15.56° C | 60% | 1012.8 hPa | 0 mm | 5.81 m/s, 38° | - | - |
| 1777986694 | 15.56° C | 59% | 1012.8 hPa | 0 mm | 6.71 m/s, 42° | - | - |
| 1777986634 | 15.56° C | 58% | 1012.8 hPa | 0 mm | 5.81 m/s, 31° | - | - |
| 1777986544 | 15.56° C | 57% | 1012.9 hPa | 0 mm | 6.71 m/s, 28° | - | - |
| 1777986484 | 16.11° C | 58% | 1012.9 hPa | 0 mm | 6.26 m/s, 25° | - | - |
| 1777986424 | 16.11° C | 60% | 1012.8 hPa | 0 mm | 5.36 m/s, 23° | - | - |
| 1777986334 | 15.56° C | 60% | 1012.8 hPa | 0 mm | 5.81 m/s, 21° | - | - |
| 1777986274 | 15.56° C | 61% | 1012.8 hPa | 0 mm | 5.81 m/s, 23° | - | - |
| 1777986186 | 15.56° C | 61% | 1012.8 hPa | 0 mm | 5.36 m/s, 20° | - | - |
| 1777986124 | 15.56° C | 61% | 1012.8 hPa | 0 mm | 5.36 m/s, 10° | - | - |
| 1777986034 | 15.56° C | 60% | 1012.8 hPa | 0 mm | 4.47 m/s, 36° | - | - |
| 1777985974 | 15.56° C | 59% | 1012.8 hPa | 0 mm | 5.81 m/s, 33° | - | - |
| 1777985915 | 15.56° C | 60% | 1012.9 hPa | 0 mm | 6.26 m/s, 25° | - | - |
| 1777985824 | 15.56° C | 60% | 1012.9 hPa | 0 mm | 6.26 m/s, 30° | - | - |
* Rain latest hour (hover to see other rain measurements)
** Current wind speed in m/s (hover to see current wind gust speed)